Location: *
(47.2969°N, 10.2930°E)
Time: 03:10:14
(UTC+00:00)

Cosmos 2058 - Pass Details

Date: 09 April 2020
Orbit: 563 x 583 km, 82.5° (Epoch: 06 June)

Event Time Altitude Azimuth Distance (km) Brightness Sun altitude
Rises 19:13:32 0° 0° (N) 2,775 6.8 -12.5°
Reaches altitude 10° 19:15:59 10° 13° (NNE) 1,876 5.7 -12.9°
Maximum altitude 19:19:31 27° 72° (ENE) 1,114 4.0 -13.4°
Enters shadow 19:20:59 22° 106° (ESE) 1,275 4.1 -13.6°
